This demonstration page uses our WeatherBlox Daily Observations layout. Learn more.

Left ArrowRight Arrow

Hourly Observations for September 20, 2020

Temp ( °F °C ) Dew Point ( °F °C ) Humidity (%) Winds ( mph kmh ) Pressure ( in mb ) Visibility ( mi km ) Precip ( " mm )
12:54 am 00:54 Clear 60 15.6 51 10.6 72 72 SSE 12 19 30.13 1020 10 16.0934 0 0
1:54 am 01:54 Clear 58 14.4 50 10 75 75 S 10 17 30.13 1020 10 16.0934 0 0
2:54 am 02:54 Clear 58 14.4 50 10 75 75 SSE 10 17 30.13 1020 10 16.0934 0 0
3:54 am 03:54 Clear 57 13.9 49 9.4 74 74 S 12 19 30.13 1020 10 16.0934 0 0
4:54 am 04:54 Clear 57 13.9 49 9.4 74 74 S 13 20 30.12 1020 10 16.0934 0 0
5:54 am 05:54 Clear 55 12.8 48 8.9 77 77 S 12 19 30.13 1020 10 16.0934 0 0
6:54 am 06:54 Clear 55 12.8 48 8.9 77 77 S 9 15 30.13 1020 10 16.0934 0 0
7:54 am 07:54 Sunny 55 12.8 48 8.9 77 77 SSE 9 15 30.14 1021 8 12.87472 0 0
8:54 am 08:54 Sunny 59 15 50 10 72 72 SSE 9 15 30.15 1021 8 12.87472 0 0
9:54 am 09:54 Sunny 65 18.3 52 11.1 63 63 S 18 30 30.13 1020 8 12.87472 0 0
10:54 am 10:54 Sunny 69 20.6 53 11.7 57 57 S 22 35 30.14 1021 8 12.87472 0 0
11:54 am 11:54 Sunny 73 22.8 53 11.7 50 50 S 22 35 30.13 1020 7 11.26538 0 0
12:54 pm 12:54 Sunny 76 24.4 53 11.7 45 45 S 23 37 30.12 1020 7 11.26538 0 0
1:54 pm 13:54 Sunny 78 25.6 53 11.7 42 42 S 21 33 30.1 1019 7 11.26538 0 0
2:54 pm 14:54 Sunny 79 26.1 53 11.7 41 41 S 21 33 30.08 1019 7 11.26538 0 0
3:54 pm 15:54 Sunny 80 26.7 53 11.7 39 39 S 18 30 30.07 1018 7 11.26538 0 0
4:54 pm 16:54 Sunny 80 26.7 51 10.6 37 37 S 20 31 30.06 1018 7 11.26538 0 0
5:54 pm 17:54 Sunny 78 25.6 50 10 37 37 S 15 24 30.07 1018 7 11.26538 0 0
6:54 pm 18:54 Sunny 73 22.8 51 10.6 46 46 SSE 12 19 30.09 1019 7 11.26538 0 0
7:54 pm 19:54 Clear 69 20.6 52 11.1 55 55 SSE 10 17 30.11 1020 9 14.48406 0 0
8:54 pm 20:54 Clear 69 20.6 51 10.6 53 53 SSE 13 20 30.12 1020 9 14.48406 0 0
9:54 pm 21:54 Clear 63 17.2 51 10.6 65 65 S 9 15 30.15 1021 9 14.48406 0 0
10:54 pm 22:54 Clear 59 15 50 10 72 72 S 7 11 30.15 1021 9 14.48406 0 0
11:54 pm 23:54 Clear 57 13.9 50 10 78 78 S 6 9 30.15 1021 9 14.48406 0 0

Powered by AerisWeather